Weather History for KNKT - April, 2013

Change the Weather History Date:

Sunday, April 21, 2013

  Actual Average (KEWN) Record (KEWN)
Temperature  
Mean Temperature 54 °F 63 °F  
Max Temperature 62 °F 75 °F 92 °F (1970)
Min Temperature 46 °F 52 °F 32 °F (1983)
Degree Days  
Heating Degree Days 11 4  
Month to date heating degree days 123  
Since 1 July heating degree days 2638  
Cooling Degree Days 0 2  
Month to date cooling degree days 32  
Year to date cooling degree days 46  
Growing Degree Days 4 (Base 50)    
Moisture  
Dew Point 40 °F    
Average Humidity 60    
Maximum Humidity 86    
Minimum Humidity 43    
Precipitation  
Precipitation 0.00 in 0.11 in 0.32 in (1986)
Month to date precipitation 2.19  
Year to date precipitation 14.26  
Snow  
Snow - - - ()
Month to date snowfall  
Since 1 July snowfall  
Snow Depth -    
Sea Level Pressure  
Sea Level Pressure 30.39 in    
Wind  
Wind Speed 10 mph ()    
Max Wind Speed 23 mph    
Max Gust Speed 34 mph    
Visibility 10.0 miles    
Events      
T = Trace of Precipitation, MM = Missing Value Source: Averaged Metar Reports

Daily Weather History Graph

Daily Weather History Graph

Search for Another Location

Airport or City:

Trip Planner

Search our weather history database for the weather conditions in past years. The results will help you decide how hot, cold, wet, or windy it might be!

Date:

Astronomy

Apr. 21, 2013 Rise Set
Actual Time 6:27 AM EDT 7:44 PM EDT
Civil Twilight 6:01 AM EDT 8:11 PM EDT
Nautical Twilight 5:30 AM EDT 8:42 PM EDT
Astronomical Twilight 4:57 AM EDT 9:15 PM EDT
Moon 3:37 PM EDT (4/21) 3:38 AM EDT (4/21)
Length of Visible Light 14h 09m
Length of Day
13h 17m
Waxing Gibbous, 79% of the Moon is Illuminated
Apr 21
Waxing Gibbous
Apr 25
Full
May 2
Last Quarter
May 9
New
May 18
First Quarter

Hourly Weather History & Observations

Time (EDT) Temp. Dew Point Humidity Pressure Visibility Wind Dir Wind Speed Gust Speed Precip Events Conditions
12:54 AM 50.0 °F 43.0 °F 77% 30.27 in 10.0 mi Calm Calm - N/A   Clear
1:54 AM 46.0 °F 42.1 °F 86% 30.27 in 10.0 mi Calm Calm - N/A   Clear
2:54 AM 48.0 °F 44.1 °F 86% 30.27 in 10.0 mi Calm Calm - N/A   Clear
3:54 AM 48.9 °F 44.1 °F 83% 30.28 in 10.0 mi NE 4.6 mph - N/A   Clear
4:54 AM 51.1 °F 44.1 °F 77% 30.30 in 10.0 mi ENE 6.9 mph - N/A   Clear
5:54 AM 51.1 °F 43.0 °F 74% 30.31 in 10.0 mi NE 11.5 mph - N/A   Clear
6:54 AM 52.0 °F 41.0 °F 66% 30.35 in 10.0 mi NNE 11.5 mph - N/A   Partly Cloudy
7:54 AM 55.0 °F 39.9 °F 57% 30.38 in 10.0 mi NE 16.1 mph - N/A   Partly Cloudy
8:54 AM 57.9 °F 41.0 °F 53% 30.39 in 10.0 mi NE 19.6 mph 27.6 mph N/A   Partly Cloudy
9:54 AM 59.0 °F 42.1 °F 53% 30.41 in 10.0 mi NE 23.0 mph 34.5 mph N/A   Scattered Clouds
10:54 AM 60.1 °F 39.9 °F 47% 30.44 in 10.0 mi ENE 20.7 mph 28.8 mph N/A   Partly Cloudy
11:54 AM 62.1 °F 39.0 °F 43% 30.44 in 10.0 mi ENE 21.9 mph 32.2 mph N/A   Partly Cloudy
12:54 PM 61.0 °F 39.9 °F 46% 30.44 in 10.0 mi ENE 18.4 mph 28.8 mph N/A   Partly Cloudy
1:54 PM 62.1 °F 39.0 °F 43% 30.44 in 10.0 mi ENE 21.9 mph 31.1 mph N/A   Partly Cloudy
2:54 PM 61.0 °F 42.1 °F 50% 30.44 in 10.0 mi ENE 23.0 mph 32.2 mph N/A   Scattered Clouds
3:54 PM 59.0 °F 41.0 °F 51% 30.43 in 10.0 mi ENE 19.6 mph 28.8 mph N/A   Scattered Clouds
4:54 PM 59.0 °F 39.9 °F 49% 30.42 in 10.0 mi ENE 21.9 mph 27.6 mph N/A   Scattered Clouds
5:54 PM 57.9 °F 42.1 °F 56% 30.41 in 10.0 mi ENE 19.6 mph 26.5 mph N/A   Scattered Clouds
6:54 PM 55.9 °F 37.0 °F 49% 30.42 in 10.0 mi ENE 15.0 mph 25.3 mph N/A   Clear
7:54 PM 53.1 °F 35.1 °F 50% 30.42 in 10.0 mi NE 18.4 mph 28.8 mph N/A   Partly Cloudy
8:54 PM 51.1 °F 36.0 °F 56% 30.45 in 10.0 mi NNE 15.0 mph 26.5 mph N/A   Clear
9:54 PM 48.9 °F 36.0 °F 61% 30.46 in 10.0 mi NNE 16.1 mph - N/A   Clear
10:54 PM 48.0 °F 36.0 °F 63% 30.45 in 10.0 mi NNE 13.8 mph 24.2 mph N/A   Clear
11:54 PM 48.9 °F 39.0 °F 69% 30.43 in 10.0 mi NE 15.0 mph - N/A   Partly Cloudy